| time (UTC) | temp F | wind direction | speed MPH | gust MPH | rain 1hr in | rain 24hr in | rain mn in | humidity % | barometer mb |
| 20260507101614 | 53 | 360 | 2.0 | 3.0 | 0.00 | 0.00 | 0.00 | 86 | 1020.0 |
| 20260507101112 | 53 | 360 | 2.0 | 4.0 | 0.00 | 0.00 | 0.00 | 86 | 1020.0 |
| 20260507100613 | 53 | 9 | 1.0 | 4.0 | 0.00 | 0.00 | 0.00 | 86 | 1019.8 |
| 20260507100112 | 53 | 0 | 0.0 | 4.0 | 0.00 | 0.00 | 0.00 | 86 | 1019.6 |
| 20260507095612 | 53 | 5 | 2.0 | 4.0 | 0.00 | 0.00 | 0.00 | 86 | 1019.7 |
| 20260507095110 | 53 | 5 | 2.0 | 3.0 | 0.00 | 0.00 | 0.00 | 86 | 1019.6 |
| 20260507094615 | 53 | 11 | 1.0 | 3.0 | 0.00 | 0.00 | 0.00 | 86 | 1019.6 |
| 20260507094110 | 54 | 11 | 2.0 | 3.0 | 0.00 | 0.00 | 0.00 | 86 | 1019.4 |
| 20260507093615 | 54 | 9 | 3.0 | 3.0 | 0.00 | 0.00 | 0.00 | 85 | 1019.2 |
| 20260507093112 | 54 | 9 | 1.0 | 3.0 | 0.00 | 0.00 | 0.00 | 86 | 1019.1 |
| 20260507092612 | 54 | 9 | 3.0 | 4.0 | 0.00 | 0.00 | 0.00 | 85 | 1019.1 |
| 20260507092114 | 54 | 9 | 2.0 | 4.0 | 0.00 | 0.00 | 0.00 | 85 | 1019.0 |
| 20260507091609 | 54 | 5 | 3.0 | 5.0 | 0.00 | 0.00 | 0.00 | 85 | 1019.0 |
| 20260507091113 | 54 | 5 | 3.0 | 5.0 | 0.00 | 0.00 | 0.00 | 85 | 1018.9 |
| 20260507090611 | 54 | 9 | 1.0 | 5.0 | 0.00 | 0.00 | 0.00 | 85 | 1018.9 |
| 20260507090113 | 54 | 19 | 3.0 | 5.0 | 0.00 | 0.00 | 0.00 | 85 | 1018.8 |
| 20260507085612 | 54 | 11 | 3.0 | 5.0 | 0.00 | 0.00 | 0.00 | 85 | 1018.7 |
| 20260507085113 | 54 | 15 | 3.0 | 5.0 | 0.00 | 0.00 | 0.00 | 85 | 1018.8 |
| 20260507084611 | 54 | 19 | 3.0 | 5.0 | 0.00 | 0.00 | 0.00 | 84 | 1018.9 |
| 20260507084112 | 54 | 17 | 4.0 | 5.0 | 0.00 | 0.00 | 0.00 | 84 | 1019.0 |
| 20260507083613 | 54 | 26 | 3.0 | 5.0 | 0.00 | 0.00 | 0.00 | 84 | 1019.1 |
| 20260507083112 | 55 | 26 | 3.0 | 5.0 | 0.00 | 0.00 | 0.00 | 84 | 1019.1 |
| 20260507082611 | 55 | 32 | 1.0 | 5.0 | 0.00 | 0.00 | 0.00 | 83 | 1019.0 |
| 20260507082114 | 55 | 27 | 3.0 | 5.0 | 0.00 | 0.00 | 0.00 | 83 | 1018.9 |
| 20260507081614 | 55 | 33 | 3.0 | 5.0 | 0.00 | 0.00 | 0.00 | 83 | 1018.9 |
| 20260507081113 | 55 | 5 | 1.0 | 5.0 | 0.00 | 0.00 | 0.00 | 83 | 1019.1 |
| 20260507080611 | 55 | 5 | 1.0 | 7.0 | 0.00 | 0.00 | 0.00 | 83 | 1019.1 |
| 20260507080111 | 55 | 360 | 2.0 | 7.0 | 0.00 | 0.00 | 0.00 | 82 | 1018.8 |
| 20260507075612 | 55 | 25 | 4.0 | 8.0 | 0.00 | 0.00 | 0.00 | 82 | 1018.8 |
| 20260507075112 | 55 | 40 | 2.0 | 8.0 | 0.00 | 0.00 | 0.00 | 82 | 1018.9 |
| 20260507074612 | 55 | 40 | 3.0 | 8.0 | 0.00 | 0.00 | 0.00 | 82 | 1018.8 |
| 20260507074112 | 55 | 337 | 3.0 | 9.0 | 0.00 | 0.00 | 0.00 | 82 | 1018.8 |
| 20260507073613 | 55 | 27 | 5.0 | 9.0 | 0.00 | 0.00 | 0.00 | 82 | 1018.7 |
| 20260507073111 | 56 | 5 | 6.0 | 9.0 | 0.00 | 0.00 | 0.00 | 82 | 1018.6 |
| 20260507072611 | 56 | 9 | 4.0 | 7.0 | 0.00 | 0.00 | 0.00 | 82 | 1018.7 |
| 20260507072112 | 56 | 11 | 3.0 | 8.0 | 0.00 | 0.00 | 0.00 | 82 | 1018.5 |
| 20260507071612 | 56 | 19 | 3.0 | 8.0 | 0.00 | 0.00 | 0.00 | 82 | 1018.5 |
| 20260507071115 | 56 | 24 | 3.0 | 7.0 | 0.00 | 0.00 | 0.00 | 82 | 1018.5 |
| 20260507070612 | 56 | 352 | 2.0 | 7.0 | 0.00 | 0.00 | 0.00 | 82 | 1018.5 |
| 20260507070111 | 56 | 11 | 3.0 | 7.0 | 0.00 | 0.00 | 0.00 | 82 | 1018.4 |
| 20260507065609 | 56 | 13 | 4.0 | 7.0 | 0.00 | 0.00 | 0.00 | 82 | 1018.4 |
| 20260507065112 | 57 | 360 | 2.0 | 6.0 | 0.00 | 0.00 | 0.00 | 82 | 1018.5 |
| 20260507064611 | 57 | 19 | 5.0 | 6.0 | 0.00 | 0.00 | 0.00 | 81 | 1018.5 |
| 20260507064117 | 57 | 25 | 3.0 | 6.0 | 0.00 | 0.00 | 0.00 | 81 | 1018.4 |
| 20260507063612 | 57 | 32 | 5.0 | 6.0 | 0.00 | 0.00 | 0.00 | 80 | 1018.4 |
| 20260507063111 | 57 | 38 | 3.0 | 5.0 | 0.00 | 0.00 | 0.00 | 80 | 1018.4 |
| 20260507062610 | 57 | 46 | 5.0 | 5.0 | 0.00 | 0.00 | 0.00 | 80 | 1018.3 |
| 20260507062113 | 57 | 24 | 3.0 | 5.0 | 0.00 | 0.00 | 0.00 | 80 | 1018.3 |
| 20260507061611 | 57 | 47 | 3.0 | 7.0 | 0.00 | 0.00 | 0.00 | 80 | 1018.3 |
| 20260507061112 | 57 | 26 | 2.0 | 8.0 | 0.00 | 0.00 | 0.00 | 80 | 1018.2 |
| 20260507060610 | 57 | 60 | 6.0 | 8.0 | 0.00 | 0.00 | 0.00 | 79 | 1018.2 |
| 20260507060114 | 57 | 59 | 3.0 | 9.0 | 0.00 | 0.00 | 0.00 | 79 | 1018.2 |
| 20260507055613 | 57 | 61 | 3.0 | 9.0 | 0.00 | 0.00 | 0.00 | 79 | 1018.2 |
| 20260507055110 | 57 | 40 | 3.0 | 5.0 | 0.00 | 0.00 | 0.00 | 79 | 1018.2 |
| 20260507054612 | 57 | 51 | 3.0 | 5.0 | 0.00 | 0.00 | 0.00 | 79 | 1018.3 |
| 20260507054112 | 58 | 51 | 4.0 | 5.0 | 0.00 | 0.00 | 0.00 | 78 | 1018.3 |
| 20260507053612 | 58 | 47 | 2.0 | 5.0 | 0.00 | 0.00 | 0.00 | 78 | 1018.2 |
| 20260507053112 | 58 | 55 | 3.0 | 8.0 | 0.00 | 0.00 | 0.00 | 78 | 1018.1 |
| 20260507052613 | 58 | 44 | 4.0 | 10.0 | 0.00 | 0.00 | 0.00 | 78 | 1018.1 |
| 20260507052112 | 58 | 63 | 4.0 | 10.0 | 0.00 | 0.00 | 0.00 | 77 | 1018.0 |
| 20260507051615 | 58 | 57 | 6.0 | 10.0 | 0.00 | 0.00 | 0.00 | 77 | 1018.0 |
| 20260507051115 | 58 | 92 | 6.0 | 9.0 | 0.00 | 0.00 | 0.00 | 77 | 1018.0 |
| 20260507050611 | 58 | 41 | 5.0 | 9.0 | 0.00 | 0.00 | 0.00 | 77 | 1018.2 |
| 20260507050112 | 58 | 57 | 4.0 | 9.0 | 0.00 | 0.00 | 0.00 | 76 | 1018.1 |
| 20260507045612 | 59 | 59 | 5.0 | 8.0 | 0.00 | 0.00 | 0.17 | 76 | 1018.1 |
| 20260507045128 | 59 | 52 | 4.0 | 11.0 | 0.00 | 0.00 | 0.17 | 76 | 1018.1 |
| 20260507044628 | 59 | 62 | 3.0 | 12.0 | 0.00 | 0.00 | 0.17 | 75 | 1018.2 |
| 20260507044128 | 59 | 74 | 1.0 | 12.0 | 0.00 | 0.00 | 0.17 | 75 | 1018.1 |
| 20260507043628 | 59 | 61 | 9.0 | 12.0 | 0.00 | 0.00 | 0.17 | 75 | 1018.2 |
| 20260507043127 | 59 | 36 | 7.0 | 10.0 | 0.00 | 0.00 | 0.17 | 75 | 1018.2 |
| 20260507042628 | 59 | 75 | 8.0 | 12.0 | 0.00 | 0.00 | 0.17 | 75 | 1018.1 |
| 20260507042128 | 59 | 67 | 5.0 | 12.0 | 0.00 | 0.00 | 0.17 | 74 | 1018.3 |
| 20260507041629 | 59 | 85 | 7.0 | 13.0 | 0.00 | 0.00 | 0.17 | 74 | 1018.3 |
| 20260507041128 | 60 | 32 | 6.0 | 13.0 | 0.00 | 0.00 | 0.17 | 74 | 1018.4 |
| 20260507040627 | 60 | 33 | 5.0 | 12.0 | 0.00 | 0.00 | 0.17 | 74 | 1018.4 |
| 20260507040127 | 60 | 73 | 5.0 | 15.0 | 0.00 | 0.00 | 0.17 | 74 | 1018.4 |
| 20260507035629 | 60 | 56 | 5.0 | 15.0 | 0.00 | 0.00 | 0.17 | 74 | 1018.5 |
| 20260507035129 | 60 | 28 | 5.0 | 13.0 | 0.00 | 0.00 | 0.17 | 74 | 1018.4 |
| 20260507034630 | 60 | 16 | 8.0 | 14.0 | 0.00 | 0.00 | 0.17 | 74 | 1018.3 |
| 20260507034127 | 60 | 66 | 6.0 | 14.0 | 0.00 | 0.00 | 0.17 | 74 | 1018.3 |
| 20260507033627 | 60 | 26 | 8.0 | 14.0 | 0.00 | 0.00 | 0.17 | 74 | 1018.3 |
| 20260507033126 | 60 | 61 | 5.0 | 14.0 | 0.00 | 0.00 | 0.17 | 74 | 1018.4 |
| 20260507032625 | 60 | 49 | 4.0 | 12.0 | 0.00 | 0.00 | 0.17 | 74 | 1018.4 |
| 20260507032125 | 60 | 57 | 10.0 | 11.0 | 0.00 | 0.00 | 0.17 | 74 | 1018.4 |
| 20260507031626 | 60 | 51 | 7.0 | 15.0 | 0.00 | 0.00 | 0.17 | 74 | 1018.2 |
| 20260507031126 | 60 | 45 | 6.0 | 15.0 | 0.00 | 0.00 | 0.17 | 74 | 1018.3 |
| 20260507030626 | 61 | 40 | 6.0 | 15.0 | 0.00 | 0.00 | 0.17 | 74 | 1018.3 |
| 20260507030125 | 61 | 37 | 6.0 | 15.0 | 0.00 | 0.00 | 0.17 | 74 | 1018.3 |
| 20260507025625 | 61 | 12 | 8.0 | 14.0 | 0.00 | 0.00 | 0.17 | 74 | 1018.3 |
| 20260507025126 | 61 | 9 | 4.0 | 14.0 | 0.00 | 0.00 | 0.17 | 73 | 1018.0 |
| 20260507024624 | 62 | 11 | 7.0 | 12.0 | 0.00 | 0.00 | 0.17 | 75 | 1017.8 |
| 20260507024126 | 62 | 9 | 8.0 | 13.0 | 0.00 | 0.00 | 0.17 | 74 | 1017.7 |
| 20260507023625 | 62 | 37 | 5.0 | 15.0 | 0.00 | 0.00 | 0.17 | 74 | 1017.6 |
| 20260507023125 | 62 | 10 | 5.0 | 15.0 | 0.00 | 0.00 | 0.17 | 74 | 1017.5 |
| 20260507022624 | 62 | 11 | 11.0 | 13.0 | 0.00 | 0.00 | 0.17 | 74 | 1017.4 |
| 20260507022125 | 62 | 14 | 9.0 | 13.0 | 0.00 | 0.00 | 0.17 | 74 | 1017.4 |
| 20260507021625 | 62 | 12 | 10.0 | 15.0 | 0.00 | 0.00 | 0.17 | 74 | 1017.3 |
| 20260507021124 | 62 | 9 | 4.0 | 15.0 | 0.00 | 0.00 | 0.17 | 74 | 1017.1 |
| 20260507020623 | 62 | 11 | 7.0 | 15.0 | 0.00 | 0.00 | 0.17 | 74 | 1017.1 |
| 20260507020125 | 62 | 11 | 7.0 | 14.0 | 0.00 | 0.00 | 0.17 | 74 | 1017.1 |
| 20260507015624 | 62 | 12 | 12.0 | 14.0 | 0.00 | 0.00 | 0.17 | 74 | 1017.0 |
| 20260507015123 | 62 | 10 | 5.0 | 13.0 | 0.00 | 0.00 | 0.17 | 74 | 1016.9 |
| 20260507014625 | 62 | 10 | 9.0 | 12.0 | 0.00 | 0.00 | 0.17 | 74 | 1016.8 |
| 20260507014123 | 62 | 13 | 7.0 | 10.0 | 0.00 | 0.00 | 0.17 | 74 | 1016.6 |
| 20260507013623 | 62 | 12 | 4.0 | 10.0 | 0.00 | 0.00 | 0.17 | 74 | 1016.5 |
| 20260507013122 | 62 | 11 | 4.0 | 11.0 | 0.00 | 0.00 | 0.17 | 74 | 1016.3 |
| 20260507012622 | 62 | 5 | 3.0 | 11.0 | 0.00 | 0.00 | 0.17 | 74 | 1016.2 |
| 20260507012122 | 62 | 10 | 3.0 | 11.0 | 0.00 | 0.00 | 0.17 | 74 | 1016.1 |
| 20260507011623 | 63 | 11 | 9.0 | 14.0 | 0.00 | 0.00 | 0.17 | 73 | 1016.0 |
| 20260507011121 | 63 | 12 | 5.0 | 14.0 | 0.00 | 0.00 | 0.17 | 73 | 1015.9 |
| 20260507010622 | 63 | 13 | 5.0 | 14.0 | 0.00 | 0.00 | 0.17 | 73 | 1015.9 |
| 20260507010125 | 63 | 13 | 8.0 | 11.0 | 0.00 | 0.00 | 0.17 | 74 | 1015.8 |
| 20260507005621 | 63 | 9 | 7.0 | 11.0 | 0.00 | 0.00 | 0.17 | 74 | 1015.6 |
| 20260507005122 | 63 | 11 | 5.0 | 12.0 | 0.00 | 0.00 | 0.17 | 74 | 1015.7 |
| 20260507004620 | 63 | 11 | 8.0 | 13.0 | 0.00 | 0.00 | 0.17 | 74 | 1015.7 |
| 20260507004120 | 63 | 9 | 5.0 | 13.0 | 0.00 | 0.00 | 0.17 | 73 | 1015.7 |
| 20260507003620 | 63 | 11 | 10.0 | 14.0 | 0.00 | 0.00 | 0.17 | 73 | 1015.7 |
| 20260507003121 | 63 | 10 | 4.0 | 14.0 | 0.00 | 0.00 | 0.17 | 73 | 1015.5 |
| 20260507002621 | 63 | 10 | 8.0 | 12.0 | 0.00 | 0.00 | 0.17 | 73 | 1015.5 |
| 20260507002122 | 64 | 10 | 4.0 | 12.0 | 0.00 | 0.00 | 0.17 | 73 | 1015.6 |
| 20260507001620 | 64 | 9 | 7.0 | 13.0 | 0.00 | 0.00 | 0.17 | 72 | 1015.5 |
| 20260507001120 | 64 | 10 | 8.0 | 14.0 | 0.00 | 0.00 | 0.17 | 73 | 1015.5 |
| 20260507000620 | 64 | 10 | 8.0 | 14.0 | 0.00 | 0.00 | 0.17 | 73 | 1015.3 |
| 20260507000120 | 64 | 9 | 14.0 | 15.0 | 0.00 | 0.00 | 0.17 | 72 | 1015.2 |
| 20260506235618 | 65 | 11 | 3.0 | 15.0 | 0.00 | 0.00 | 0.17 | 72 | 1015.2 |
| 20260506235120 | 65 | 9 | 5.0 | 14.0 | 0.00 | 0.00 | 0.17 | 71 | 1015.2 |
| 20260506234619 | 65 | 9 | 5.0 | 13.0 | 0.00 | 0.00 | 0.17 | 71 | 1015.0 |
| 20260506234118 | 65 | 31 | 6.0 | 12.0 | 0.00 | 0.00 | 0.17 | 72 | 1015.0 |
| 20260506233618 | 65 | 5 | 9.0 | 12.0 | 0.00 | 0.00 | 0.17 | 71 | 1015.0 |
| 20260506233119 | 65 | 12 | 11.0 | 11.0 | 0.00 | 0.00 | 0.17 | 71 | 1014.9 |
| 20260506232620 | 65 | 10 | 3.0 | 14.0 | 0.00 | 0.00 | 0.17 | 71 | 1014.9 |
| 20260506232119 | 65 | 30 | 2.0 | 15.0 | 0.00 | 0.00 | 0.17 | 71 | 1014.8 |
| 20260506231618 | 65 | 9 | 4.0 | 15.0 | 0.00 | 0.00 | 0.17 | 70 | 1014.7 |
| 20260506231118 | 66 | 9 | 8.0 | 15.0 | 0.00 | 0.00 | 0.17 | 70 | 1014.6 |
| 20260506230616 | 66 | 11 | 4.0 | 12.0 | 0.00 | 0.00 | 0.17 | 70 | 1014.6 |
| 20260506230120 | 66 | 15 | 11.0 | 12.0 | 0.00 | 0.00 | 0.17 | 69 | 1014.6 |
| 20260506225617 | 66 | 360 | 3.0 | 12.0 | 0.00 | 0.00 | 0.17 | 70 | 1014.8 |
| 20260506225118 | 65 | 12 | 7.0 | 10.0 | 0.00 | 0.00 | 0.17 | 71 | 1014.9 |
| 20260506224618 | 65 | 14 | 3.0 | 12.0 | 0.00 | 0.00 | 0.17 | 70 | 1014.9 |
| 20260506224118 | 65 | 9 | 7.0 | 12.0 | 0.00 | 0.00 | 0.17 | 71 | 1014.7 |
| 20260506223616 | 66 | 15 | 5.0 | 11.0 | 0.00 | 0.00 | 0.17 | 70 | 1014.6 |
| 20260506223120 | 66 | 22 | 5.0 | 13.0 | 0.00 | 0.00 | 0.17 | 71 | 1014.6 |
| 20260506222617 | 65 | 12 | 5.0 | 13.0 | 0.00 | 0.00 | 0.17 | 72 | 1014.5 |
| 20260506222115 | 65 | 10 | 8.0 | 13.0 | 0.00 | 0.00 | 0.17 | 71 | 1014.4 |
| 20260506221615 | 64 | 16 | 5.0 | 15.0 | 0.00 | 0.00 | 0.17 | 73 | 1014.6 |
| 20260506221116 | 64 | 11 | 5.0 | 15.0 | 0.00 | 0.00 | 0.17 | 72 | 1014.4 |
| 20260506220617 | 64 | 19 | 5.0 | 11.0 | 0.00 | 0.00 | 0.17 | 72 | 1014.5 |
| 20260506220115 | 64 | 9 | 5.0 | 11.0 | 0.00 | 0.00 | 0.17 | 71 | 1014.5 |
| 20260506215617 | 64 | 21 | 8.0 | 9.0 | 0.00 | 0.00 | 0.17 | 73 | 1014.4 |
| 20260506215115 | 63 | 14 | 3.0 | 10.0 | 0.00 | 0.00 | 0.17 | 73 | 1014.9 |
| 20260506214614 | 63 | 12 | 4.0 | 10.0 | 0.00 | 0.00 | 0.17 | 73 | 1015.0 |
| 20260506214114 | 63 | 5 | 4.0 | 10.0 | 0.00 | 0.00 | 0.17 | 74 | 1015.0 |
| 20260506213615 | 62 | 11 | 3.0 | 11.0 | 0.00 | 0.00 | 0.17 | 75 | 1014.9 |
| 20260506213114 | 62 | 13 | 7.0 | 12.0 | 0.00 | 0.00 | 0.17 | 74 | 1014.9 |
| 20260506212614 | 61 | 13 | 10.0 | 12.0 | 0.00 | 0.00 | 0.17 | 74 | 1014.7 |
| 20260506212114 | 61 | 11 | 7.0 | 10.0 | 0.00 | 0.00 | 0.17 | 74 | 1014.9 |
| 20260506211614 | 62 | 13 | 7.0 | 9.0 | 0.00 | 0.00 | 0.17 | 75 | 1015.0 |
| 20260506211114 | 61 | 10 | 4.0 | 9.0 | 0.00 | 0.00 | 0.17 | 75 | 1015.0 |
| 20260506210615 | 61 | 11 | 3.0 | 9.0 | 0.00 | 0.00 | 0.17 | 75 | 1015.1 |
| 20260506210113 | 61 | 11 | 5.0 | 9.0 | 0.00 | 0.00 | 0.17 | 75 | 1015.1 |
| 20260506205615 | 61 | 11 | 7.0 | 12.0 | 0.00 | 0.00 | 0.17 | 74 | 1015.2 |
| 20260506205115 | 61 | 13 | 4.0 | 12.0 | 0.00 | 0.00 | 0.17 | 75 | 1015.0 |
| 20260506204614 | 61 | 11 | 9.0 | 12.0 | 0.00 | 0.00 | 0.17 | 74 | 1014.9 |
| 20260506204115 | 61 | 13 | 5.0 | 10.0 | 0.00 | 0.00 | 0.17 | 74 | 1015.1 |
| 20260506203614 | 61 | 11 | 5.0 | 10.0 | 0.00 | 0.00 | 0.17 | 75 | 1015.1 |
| 20260506203112 | 61 | 5 | 3.0 | 10.0 | 0.00 | 0.00 | 0.17 | 74 | 1014.9 |
| 20260506202613 | 61 | 11 | 7.0 | 10.0 | 0.00 | 0.00 | 0.17 | 74 | 1015.5 |
| 20260506202113 | 61 | 9 | 9.0 | 10.0 | 0.00 | 0.00 | 0.17 | 74 | 1015.3 |
| 20260506201613 | 60 | 12 | 7.0 | 10.0 | 0.00 | 0.00 | 0.17 | 75 | 1015.5 |
| 20260506201113 | 61 | 10 | 7.0 | 9.0 | 0.00 | 0.00 | 0.17 | 74 | 1015.6 |
| 20260506200612 | 61 | 12 | 5.0 | 9.0 | 0.00 | 0.00 | 0.17 | 74 | 1015.4 |
| 20260506200112 | 60 | 33 | 4.0 | 10.0 | 0.00 | 0.00 | 0.17 | 74 | 1015.6 |
| 20260506195613 | 60 | 11 | 7.0 | 10.0 | 0.00 | 0.00 | 0.17 | 74 | 1015.6 |
| 20260506195111 | 60 | 9 | 7.0 | 9.0 | 0.00 | 0.00 | 0.17 | 76 | 1015.7 |
| 20260506194617 | 60 | 12 | 4.0 | 9.0 | 0.00 | 0.00 | 0.17 | 76 | 1015.8 |
| 20260506194112 | 59 | 10 | 5.0 | 9.0 | 0.00 | 0.00 | 0.17 | 76 | 1015.9 |
| 20260506193611 | 60 | 11 | 3.0 | 9.0 | 0.00 | 0.00 | 0.17 | 76 | 1016.0 |
| 20260506193110 | 59 | 15 | 2.0 | 6.0 | 0.00 | 0.00 | 0.17 | 76 | 1016.0 |
| 20260506192610 | 59 | 32 | 3.0 | 6.0 | 0.00 | 0.00 | 0.17 | 76 | 1016.1 |
| 20260506192110 | 59 | 29 | 6.0 | 8.0 | 0.00 | 0.00 | 0.17 | 76 | 1016.5 |
| 20260506191615 | 58 | 10 | 5.0 | 8.0 | 0.00 | 0.00 | 0.17 | 76 | 1016.1 |
| 20260506191115 | 58 | 10 | 4.0 | 8.0 | 0.00 | 0.00 | 0.17 | 76 | 1016.1 |
| 20260506190609 | 58 | 360 | 3.0 | 8.0 | 0.00 | 0.00 | 0.17 | 76 | 1016.3 |
| 20260506190111 | 58 | 5 | 3.0 | 8.0 | 0.00 | 0.00 | 0.17 | 76 | 1016.4 |
| 20260506185611 | 58 | 35 | 5.0 | 9.0 | 0.00 | 0.00 | 0.17 | 77 | 1016.3 |
| 20260506185110 | 58 | 9 | 7.0 | 9.0 | 0.00 | 0.00 | 0.17 | 77 | 1016.0 |
| 20260506184610 | 58 | 11 | 5.0 | 8.0 | 0.00 | 0.00 | 0.17 | 77 | 1016.2 |
| 20260506184112 | 59 | 30 | 2.0 | 12.0 | 0.00 | 0.00 | 0.17 | 76 | 1016.2 |
| 20260506183611 | 59 | 9 | 1.0 | 14.0 | 0.00 | 0.00 | 0.17 | 77 | 1015.8 |
| 20260506183112 | 58 | 30 | 5.0 | 14.0 | 0.00 | 0.00 | 0.17 | 77 | 1015.5 |
| 20260506182613 | 58 | 29 | 10.0 | 16.0 | 0.00 | 0.00 | 0.17 | 78 | 1015.0 |
| 20260506182113 | 58 | 30 | 12.0 | 16.0 | 0.00 | 0.00 | 0.17 | 78 | 1015.2 |
| 20260506181613 | 58 | 10 | 4.0 | 16.0 | 0.00 | 0.00 | 0.17 | 78 | 1015.3 |
| 20260506181111 | 58 | 32 | 8.0 | 15.0 | 0.00 | 0.00 | 0.17 | 79 | 1015.0 |
| 20260506180611 | 57 | 5 | 5.0 | 13.0 | 0.00 | 0.00 | 0.17 | 80 | 1015.0 |
| 20260506180109 | 57 | 30 | 3.0 | 16.0 | 0.00 | 0.00 | 0.17 | 81 | 1015.5 |
| 20260506175613 | 57 | 9 | 4.0 | 16.0 | 0.00 | 0.00 | 0.17 | 81 | 1015.6 |
| 20260506175110 | 56 | 27 | 6.0 | 16.0 | 0.00 | 0.00 | 0.17 | 82 | 1015.7 |
| 20260506174612 | 56 | 11 | 9.0 | 16.0 | 0.00 | 0.00 | 0.17 | 82 | 1015.6 |
| 20260506174112 | 55 | 30 | 5.0 | 16.0 | 0.00 | 0.00 | 0.17 | 83 | 1015.8 |
| 20260506173612 | 55 | 32 | 5.0 | 16.0 | 0.00 | 0.00 | 0.17 | 84 | 1015.7 |
| 20260506173113 | 55 | 10 | 5.0 | 14.0 | 0.00 | 0.00 | 0.17 | 84 | 1015.7 |
| 20260506172622 | 55 | 5 | 4.0 | 14.0 | 0.00 | 0.00 | 0.17 | 85 | 1015.6 |
| 20260506172123 | 55 | 9 | 4.0 | 14.0 | 0.00 | 0.00 | 0.17 | 85 | 1015.8 |
| 20260506171622 | 54 | 32 | 2.0 | 16.0 | 0.00 | 0.00 | 0.17 | 86 | 1015.7 |
| 20260506171121 | 54 | 9 | 7.0 | 16.0 | 0.00 | 0.00 | 0.17 | 86 | 1015.4 |
| 20260506170621 | 54 | 360 | 10.0 | 14.0 | 0.00 | 0.00 | 0.17 | 87 | 1015.5 |
| 20260506170121 | 54 | 35 | 7.0 | 13.0 | 0.00 | 0.00 | 0.17 | 87 | 1015.6 |
| 20260506165620 | 54 | 9 | 7.0 | 13.0 | 0.00 | 0.00 | 0.17 | 88 | 1015.9 |
| 20260506165122 | 53 | 11 | 9.0 | 12.0 | 0.00 | 0.00 | 0.17 | 88 | 1016.0 |
| 20260506164623 | 53 | 11 | 5.0 | 10.0 | 0.00 | 0.00 | 0.17 | 88 | 1015.9 |
| 20260506164123 | 53 | 5 | 6.0 | 9.0 | 0.00 | 0.00 | 0.17 | 89 | 1016.1 |
| 20260506163620 | 53 | 11 | 5.0 | 11.0 | 0.00 | 0.00 | 0.17 | 88 | 1016.2 |
| 20260506163121 | 53 | 11 | 7.0 | 12.0 | 0.00 | 0.00 | 0.17 | 88 | 1016.4 |
| 20260506162620 | 53 | 12 | 11.0 | 12.0 | 0.00 | 0.00 | 0.17 | 88 | 1016.2 |
| 20260506162120 | 53 | 13 | 4.0 | 12.0 | 0.00 | 0.00 | 0.17 | 88 | 1016.1 |
| 20260506161619 | 53 | 5 | 6.0 | 11.0 | 0.00 | 0.00 | 0.17 | 89 | 1016.1 |
| 20260506161119 | 53 | 11 | 5.0 | 15.0 | 0.00 | 0.00 | 0.17 | 89 | 1015.8 |
| 20260506160621 | 53 | 11 | 11.0 | 16.0 | 0.00 | 0.00 | 0.17 | 89 | 1015.8 |
| 20260506160120 | 53 | 13 | 4.0 | 17.0 | 0.00 | 0.00 | 0.17 | 89 | 1015.4 |
| 20260506155617 | 53 | 21 | 11.0 | 17.0 | 0.00 | 0.00 | 0.17 | 89 | 1014.9 |
| 20260506155121 | 53 | 306 | 1.0 | 14.0 | 0.00 | 0.00 | 0.17 | 90 | 1015.3 |
| 20260506154620 | 53 | 316 | 9.0 | 14.0 | 0.00 | 0.00 | 0.17 | 89 | 1015.5 |
| 20260506154121 | 53 | 333 | 3.0 | 9.0 | 0.00 | 0.00 | 0.17 | 90 | 1016.0 |
| 20260506153618 | 52 | 333 | 4.0 | 10.0 | 0.00 | 0.00 | 0.17 | 89 | 1015.7 |
| 20260506153118 | 52 | 318 | 2.0 | 10.0 | 0.00 | 0.00 | 0.17 | 89 | 1016.0 |
| 20260506152618 | 52 | 13 | 5.0 | 11.0 | 0.00 | 0.00 | 0.17 | 89 | 1016.2 |
| 20260506152121 | 52 | 36 | 5.0 | 11.0 | 0.00 | 0.00 | 0.16 | 88 | 1015.9 |
| 20260506151620 | 52 | 24 | 9.0 | 15.0 | 0.00 | 0.00 | 0.16 | 87 | 1015.9 |
| 20260506151119 | 53 | 5 | 9.0 | 15.0 | 0.00 | 0.00 | 0.13 | 86 | 1016.6 |
| 20260506150618 | 53 | 336 | 10.0 | 10.0 | 0.00 | 0.00 | 0.01 | 84 | 1018.0 |
| 20260506150119 | 53 | 340 | 8.0 | 10.0 | 0.00 | 0.00 | 0.00 | 83 | 1017.7 |
| 20260506145617 | 53 | 323 | 5.0 | 10.0 | 0.00 | 0.00 | 0.00 | 83 | 1017.5 |
| 20260506145118 | 53 | 5 | 2.0 | 9.0 | 0.00 | 0.00 | 0.00 | 82 | 1017.1 |
| 20260506144616 | 53 | 327 | 6.0 | 9.0 | 0.00 | 0.00 | 0.00 | 83 | 1016.8 |
| 20260506144116 | 53 | 350 | 4.0 | 10.0 | 0.00 | 0.00 | 0.00 | 82 | 1016.9 |
| 20260506143617 | 53 | 327 | 5.0 | 14.0 | 0.00 | 0.00 | 0.00 | 83 | 1016.1 |
| 20260506143115 | 53 | 331 | 6.0 | 14.0 | 0.00 | 0.00 | 0.00 | 82 | 1015.4 |
| 20260506142617 | 53 | 42 | 9.0 | 14.0 | 0.00 | 0.00 | 0.00 | 82 | 1014.9 |
| 20260506142116 | 53 | 352 | 4.0 | 12.0 | 0.00 | 0.00 | 0.00 | 82 | 1015.4 |
| 20260506141616 | 53 | 26 | 8.0 | 12.0 | 0.00 | 0.00 | 0.00 | 82 | 1016.0 |
| 20260506141116 | 53 | 11 | 5.0 | 14.0 | 0.00 | 0.00 | 0.00 | 82 | 1016.4 |
| 20260506140617 | 53 | 351 | 4.0 | 14.0 | 0.00 | 0.00 | 0.00 | 82 | 1016.4 |
| 20260506140115 | 53 | 317 | 5.0 | 13.0 | 0.00 | 0.00 | 0.00 | 82 | 1016.2 |
| 20260506135616 | 53 | 360 | 5.0 | 13.0 | 0.00 | 0.00 | 0.00 | 82 | 1016.0 |
| 20260506135117 | 53 | 51 | 4.0 | 13.0 | 0.00 | 0.00 | 0.00 | 82 | 1015.9 |
| 20260506134618 | 53 | 51 | 7.0 | 14.0 | 0.00 | 0.00 | 0.00 | 82 | 1015.7 |
| 20260506134113 | 53 | 38 | 3.0 | 15.0 | 0.00 | 0.00 | 0.00 | 83 | 1015.5 |
| 20260506133616 | 53 | 9 | 7.0 | 15.0 | 0.00 | 0.00 | 0.00 | 83 | 1015.3 |
| 20260506133113 | 53 | 360 | 9.0 | 13.0 | 0.00 | 0.00 | 0.00 | 83 | 1015.0 |
| 20260506132613 | 53 | 37 | 4.0 | 14.0 | 0.00 | 0.00 | 0.00 | 83 | 1015.0 |
| 20260506132114 | 53 | 5 | 5.0 | 14.0 | 0.00 | 0.00 | 0.00 | 83 | 1015.3 |
| 20260506131613 | 53 | 327 | 10.0 | 14.0 | 0.00 | 0.00 | 0.00 | 83 | 1015.1 |
| 20260506131114 | 53 | 10 | 9.0 | 14.0 | 0.00 | 0.00 | 0.00 | 83 | 1015.0 |
| 20260506130614 | 52 | 13 | 4.0 | 16.0 | 0.00 | 0.00 | 0.00 | 83 | 1014.8 |
| 20260506130113 | 52 | 360 | 8.0 | 16.0 | 0.00 | 0.00 | 0.00 | 83 | 1014.8 |
| 20260506125612 | 52 | 38 | 10.0 | 17.0 | 0.00 | 0.00 | 0.00 | 83 | 1014.8 |
| 20260506125112 | 52 | 5 | 10.0 | 17.0 | 0.00 | 0.00 | 0.00 | 83 | 1014.4 |
| 20260506124612 | 53 | 341 | 5.0 | 16.0 | 0.00 | 0.00 | 0.00 | 82 | 1014.6 |
| 20260506124110 | 53 | 324 | 10.0 | 15.0 | 0.00 | 0.00 | 0.00 | 82 | 1014.5 |
| 20260506123613 | 53 | 5 | 14.0 | 15.0 | 0.00 | 0.00 | 0.00 | 81 | 1014.5 |
| 20260506123112 | 53 | 344 | 6.0 | 13.0 | 0.00 | 0.00 | 0.00 | 81 | 1014.6 |
| 20260506122612 | 53 | 17 | 11.0 | 15.0 | 0.00 | 0.00 | 0.00 | 81 | 1014.4 |
| 20260506122113 | 54 | 5 | 8.0 | 15.0 | 0.00 | 0.00 | 0.00 | 81 | 1014.3 |
| 20260506121611 | 54 | 331 | 11.0 | 16.0 | 0.00 | 0.00 | 0.00 | 80 | 1014.2 |
| 20260506121111 | 54 | 26 | 6.0 | 16.0 | 0.00 | 0.00 | 0.00 | 79 | 1014.3 |
| 20260506120611 | 54 | 22 | 10.0 | 16.0 | 0.00 | 0.00 | 0.00 | 78 | 1014.2 |
| 20260506120111 | 54 | 360 | 5.0 | 16.0 | 0.00 | 0.00 | 0.00 | 78 | 1014.2 |
| 20260506115615 | 55 | 312 | 11.0 | 16.0 | 0.00 | 0.00 | 0.00 | 77 | 1014.1 |
| 20260506115111 | 55 | 360 | 8.0 | 16.0 | 0.00 | 0.00 | 0.00 | 77 | 1014.0 |
| 20260506114613 | 55 | 336 | 5.0 | 14.0 | 0.00 | 0.00 | 0.00 | 76 | 1014.0 |
| 20260506114112 | 55 | 323 | 8.0 | 15.0 | 0.00 | 0.00 | 0.00 | 76 | 1014.0 |
| 20260506113614 | 55 | 360 | 9.0 | 15.0 | 0.00 | 0.00 | 0.00 | 76 | 1013.7 |
| 20260506113114 | 55 | 360 | 4.0 | 14.0 | 0.00 | 0.00 | 0.00 | 76 | 1013.7 |
| 20260506112614 | 55 | 313 | 9.0 | 14.0 | 0.00 | 0.00 | 0.00 | 75 | 1013.6 |
| 20260506112113 | 56 | 5 | 4.0 | 15.0 | 0.00 | 0.00 | 0.00 | 76 | 1013.7 |
| 20260506111613 | 55 | 5 | 3.0 | 17.0 | 0.00 | 0.00 | 0.00 | 76 | 1013.3 |
| 20260506111111 | 55 | 5 | 12.0 | 18.0 | 0.00 | 0.00 | 0.00 | 75 | 1013.1 |
| 20260506110610 | 56 | 22 | 10.0 | 18.0 | 0.00 | 0.00 | 0.00 | 75 | 1013.2 |
| 20260506110113 | 56 | 342 | 14.0 | 18.0 | 0.00 | 0.00 | 0.00 | 75 | 1013.2 |
| 20260506105612 | 56 | 317 | 5.0 | 17.0 | 0.00 | 0.00 | 0.00 | 75 | 1013.0 |
| 20260506105111 | 56 | 339 | 11.0 | 17.0 | 0.00 | 0.00 | 0.00 | 75 | 1012.9 |
| 20260506104611 | 56 | 329 | 6.0 | 15.0 | 0.00 | 0.00 | 0.00 | 75 | 1012.8 |
| 20260506104111 | 56 | 24 | 4.0 | 15.0 | 0.00 | 0.00 | 0.00 | 75 | 1012.9 |
| 20260506103616 | 57 | 330 | 4.0 | 15.0 | 0.00 | 0.00 | 0.00 | 75 | 1012.8 |
| 20260506103114 | 57 | 352 | 8.0 | 15.0 | 0.00 | 0.00 | 0.00 | 75 | 1012.7 |
| 20260506102615 | 57 | 326 | 13.0 | 12.0 | 0.00 | 0.00 | 0.00 | 75 | 1012.7 |
| 20260506102113 | 57 | 348 | 5.0 | 13.0 | 0.00 | 0.00 | 0.00 | 75 | 1012.5 |